Location: Bo?a Wola
(50.4192°N, 19.7966°E)
Time: 12:07:18
(UTC+00:00)

UNK - Pass Details

Date: 15 June 2024
Orbit: 659 x 679 km, 98.3° (Epoch: 15 July)

Event Time Altitude Azimuth Distance (km) Brightness Sun altitude
Rises 01:17:00 0° 156° (SSE) 3,016 6.8 -8.6°
Reaches altitude 10° 01:19:14 10° 154° (SSE) 2,103 6.0 -8.4°
Maximum altitude 01:23:48 69° 72° (ENE) 724 4.1 -8.0°
Drops below altitude 10° 01:28:22 10° 350° (N) 2,106 6.9 -7.5°
Sets 01:30:36 0° 348° (NNW) 3,021 7.7 -7.3°
